ギャラッド彗星

259P/Garradd (2022)

English version
Home page
Updated on November 1, 2021

---------------------------------------------------------------------

・ プロフィール

・ 軌道要素

Epoch 2022 Jan. 21.0 TT = JDT 2459600.5
T 2022 Feb. 8.40587 TT                                  MPCW
q   1.8056405            (2000.0)            P               Q
n   0.21846529     Peri.  257.64682     +0.60143719     +0.76968995
a   2.7303255      Node    51.44981     -0.58430999     +0.60656635
e   0.3386721      Incl.   15.89044     -0.54484414     +0.19913472
P   4.51
From 65 observations 2008 Sept. 2-2017 Sept. 21, mean residual 0".6.

・ 光度変化

        m1 = 11.0 + 5 logΔ + 30.0 log r(t - 50)

---------------------------------------------------------------------

軌道要素はM.P.E.C. 2017-T14に掲載されたものです。
光度グラフはComet for Windowsで作成したものです。

---------------------------------------------------------------------

Copyright(C) Seiichi Yoshida (comet@aerith.net). All rights reserved.